カタログに戻る

BSAT-2A

運用中通信GEO
NORAD 26720·PAYLOAD·🇯🇵 Japan

打ち上げ Mar 8, 2001 から Guiana Space Centre

Loading…

TLE

最新Source: Space-Track

元期: Sep 14, 2026, 08:18 UTC

1 26720U 01011B   26257.34631167 -.00000126  00000-0  00000-0 0  9993
2 26720  10.9191  46.6422 0006456 184.6634 170.7801  0.99176702 92856

AllMySatでBSAT-2Aをリアルタイム追跡

Download on the App Store